FW1602 Weather Reports


time (UTC)temp
C
wind
direction
speed
KPH
gust
KPH
rain 1hr
cm
rain 24hr
cm
rain mn
cm
humidity
%
barometer
mb
20260506233002 13 303 4.8 8.0 0.00 0.00 0.00 57 1017.0
20260506231501 12 299 4.8 8.0 0.00 0.00 0.00 62 1017.5
20260506230002 11 301 4.8 8.0 0.00 0.00 0.00 64 1017.7
20260506224521 11 291 4.8 8.0 0.00 0.00 0.00 67 1017.8
20260506223000 11 270 3.2 3.2 0.00 0.00 0.00 67 1017.8
20260506221522 12 297 4.8 8.0 0.00 0.00 0.00 68 1017.9
20260506220005 11 288 4.8 8.0 0.00 0.00 0.00 72 1018.0
20260506214521 11 299 3.2 8.0 0.00 0.00 0.00 72 1018.0
20260506213001 11 290 4.8 8.0 0.00 0.00 0.00 71 1018.1
20260506211501 11 283 3.2 3.2 0.00 0.00 0.00 70 1018.2
20260506210033 11 312 4.8 8.0 0.00 0.00 0.00 70 1018.3
20260506204501 11 288 4.8 8.0 0.00 0.00 0.00 70 1018.4
20260506203022 12 312 4.8 8.0 0.00 0.00 0.00 68 1018.2
20260506201522 12 289 4.8 8.0 0.00 0.00 0.00 69 1018.2
20260506200002 12 285 1.6 3.2 0.00 0.00 0.00 67 1017.9
20260506194522 12 301 4.8 8.0 0.00 0.00 0.00 66 1017.7
20260506193001 13 308 4.8 8.0 0.00 0.00 0.00 64 1017.4
20260506191501 13 283 3.2 8.0 0.00 0.00 0.00 65 1017.3
20260506190002 13 295 3.2 8.0 0.00 0.00 0.00 64 1017.1
20260506184501 12 287 3.2 3.2 0.00 0.00 0.00 67 1017.2
20260506181522 14 291 3.2 3.2 0.00 0.00 0.00 62 1016.5
20260506180002 15 278 1.6 3.2 0.00 0.00 0.00 57 1016.2
20260506174501 14 275 3.2 3.2 0.00 0.00 0.00 62 1016.3
20260506173001 15 284 4.8 8.0 0.00 0.00 0.00 60 1015.9
20260506171501 15 302 3.2 8.0 0.00 0.00 0.00 62 1015.9
20260506170003 16 299 3.2 3.2 0.00 0.00 0.00 61 1015.7
20260506164523 16 330 4.8 8.0 0.00 0.00 0.00 58 1015.6
20260506163002 17 4 4.8 8.0 0.00 0.00 0.00 57 1015.5
20260506161523 17 340 4.8 8.0 0.00 0.00 0.00 58 1015.3
20260506160002 18 283 3.2 3.2 0.00 0.00 0.00 56 1015.1
20260506154502 19 237 4.8 8.0 0.00 0.00 0.00 53 1014.7
20260506153002 20 229 4.8 8.0 0.00 0.00 0.00 52 1014.5
20260506151502 21 261 4.8 8.0 0.00 0.00 0.00 54 1014.6
20260506150004 21 354 3.2 8.0 0.00 0.00 0.00 53 1014.7
20260506144502 21 262 4.8 6.4 0.00 0.00 0.00 56 1014.5
20260506141523 21 39 4.8 8.0 0.00 0.00 0.00 56 1014.7
20260506140004 22 264 4.8 8.0 0.00 0.00 0.00 56 1014.5
20260506134502 22 194 4.8 12.9 0.00 0.00 0.00 49 1014.4
20260506133023 21 243 3.2 3.2 0.00 0.00 0.00 57 1014.8
20260506131502 21 240 4.8 9.7 0.00 0.00 0.00 52 1014.8
20260506130004 23 282 3.2 6.4 0.00 0.00 0.00 50 1014.4
20260506124502 23 260 4.8 8.0 0.00 0.00 0.00 49 1014.4
20260506123002 22 31 6.4 9.7 0.00 0.00 0.00 54 1014.5
20260506121503 23 324 4.8 8.0 0.00 0.00 0.00 56 1014.6
20260506120004 23 287 4.8 8.0 0.00 0.00 0.00 55 1014.4
20260506114524 23 28 4.8 8.0 0.00 0.00 0.00 57 1014.7
20260506113003 22 335 3.2 3.2 0.00 0.00 0.00 57 1015.0
20260506111503 22 251 4.8 8.0 0.00 0.00 0.00 54 1015.1
20260506110003 22 56 4.8 6.4 0.00 0.00 0.00 55 1015.1
20260506104503 22 50 3.2 6.4 0.00 0.00 0.00 56 1015.1
20260506103003 25 230 4.8 9.7 0.00 0.00 0.00 50 1014.4
20260506101524 25 232 4.8 8.0 0.00 0.00 0.00 50 1014.6
20260506100004 23 208 6.4 9.7 0.00 0.00 0.00 48 1014.9
20260506094503 24 235 4.8 9.7 0.00 0.00 0.00 48 1014.7
20260506093024 24 258 3.2 3.2 0.00 0.00 0.00 48 1014.8
20260506091503 23 87 4.8 8.0 0.00 0.00 0.00 45 1015.1
20260506090024 23 27 4.8 6.4 0.00 0.00 0.00 46 1015.1
20260506084503 23 28 3.2 6.4 0.00 0.00 0.00 48 1014.9
20260506083024 23 331 3.2 6.4 0.00 0.00 0.00 49 1015.0
20260506081503 22 352 4.8 6.4 0.00 0.00 0.00 48 1015.1
20260506073004 21 305 3.2 6.4 0.00 0.00 0.00 47 1015.2
20260506071524 21 241 4.8 6.4 0.00 0.00 0.00 51 1015.0
20260506061503 20 297 1.6 3.2 0.00 0.00 0.00 55 1015.3
20260506044504 16 0 0.0 0.0 0.00 0.00 0.00 62 1015.7
20260506043025 13 315 0.0 3.2 0.00 0.00 0.00 70 1016.2
20260506041503 12 0 0.0 0.0 0.00 0.00 0.00 75 1016.2
20260506040004 12 0 0.0 0.0 0.00 0.00 0.00 72 1016.3
20260506034504 11 0 0.0 0.0 0.00 0.00 0.00 73 1016.3
20260506033005 11 0 0.0 0.0 0.00 0.00 0.00 73 1016.2
20260506031504 11 0 0.0 0.0 0.00 0.00 0.00 72 1016.0
20260506030005 11 0 0.0 0.0 0.00 0.00 0.00 72 1016.0
20260506024525 12 270 0.0 3.2 0.00 0.00 0.00 69 1015.9
20260506023025 12 0 0.0 0.0 0.00 0.00 0.00 69 1015.8
20260506021525 12 135 1.6 3.2 0.00 0.00 0.00 67 1015.8
20260506020006 12 311 3.2 8.0 0.00 0.00 0.00 68 1015.9
20260506014525 11 331 4.8 8.0 0.00 0.00 0.00 71 1016.3
20260506013004 10 237 1.6 3.2 0.00 0.00 0.00 74 1016.5
20260506011504 10 248 1.6 3.2 0.00 0.00 0.00 71 1016.5
20260506010007 11 270 0.0 3.2 0.00 0.00 0.00 68 1016.3
20260506004505 12 225 0.0 3.2 0.00 0.00 0.00 62 1016.1
20260506003004 11 225 0.0 3.2 0.00 0.00 0.00 68 1016.4
20260506001504 11 0 0.0 0.0 0.00 0.00 0.00 70 1016.4
20260506000006 11 270 0.0 3.2 0.00 0.00 0.00 69 1016.3
20260505234500 10 270 1.6 3.2 0.00 0.00 0.00 73 1016.5
20260505233020 10 270 0.0 3.2 0.00 0.00 0.00 73 1016.7